Meteo Giornale » Osservazioni meteo Croazia » Rijeka-Omisalj

ore: 19:00 - Osservazioni Meteo Rijeka-Omisalj
Lat. 45° 13' N Lon. 14° 35' E Alt. 85 metri s.l.m.

molto_nuvoloso Europe/Zagreb

10 °C

Molto Nuvoloso

Temp. 24 Ore

3 °C

12 °C

Sud-Est

11.1 Km/h

Dew point 4 °C

Umidità 66 %

Visibilità  10 Km

Il sole sorge alle ore 07:18

Il sole tramonta alle ore 17:12

Data e Ora Cielo e Fenomeni T °C DP °C Um. % Pres. hPa Vis. km Vento km/h
Ieri h: 19:00 molto_nuvoloso Molto Nuvoloso 10 4 66 1021 10 SE 11.1
Ieri h: 18:30 molto_nuvoloso Molto Nuvoloso 9 3 66 1021 10 SE 11.1
Ieri h: 18:00 molto_nuvoloso Molto Nuvoloso 10 3 61 1022 10 E/SE 9.3
Ieri h: 17:30 molto_nuvoloso Molto Nuvoloso 10 2 57 1022 10 E/SE 7.4
Ieri h: 17:00 molto_nuvoloso Molto Nuvoloso 10 4 66 1022 10 N 3.7
Ieri h: 16:30 molto_nuvoloso Molto Nuvoloso 10 4 66 1023 10 N 3.7
Ieri h: 16:00 molto_nuvoloso Molto Nuvoloso 11 3 57 1023 10 SE 7.4
Ieri h: 15:30 molto_nuvoloso Molto Nuvoloso 11 2 53 1023 10 E/SE 11.1
Ieri h: 15:00 molto_nuvoloso Molto Nuvoloso 12 2 50 1023 10 SE 9.3
Ieri h: 14:30 molto_nuvoloso Molto Nuvoloso 11 1 50 1024 10 E/SE 11.1
Ieri h: 14:00 molto_nuvoloso Molto Nuvoloso 11 0 46 1024 10 E/SE 14.8
Ieri h: 13:30 molto_nuvoloso Molto Nuvoloso 11 0 46 1025 10 E/SE 13
Ieri h: 13:00 molto_nuvoloso Molto Nuvoloso 11 1 50 1025 10 E/SE 13
Ieri h: 12:30 sereno Sereno 12 1 46 1026 10 E 11.1
Ieri h: 12:00 sereno Sereno 12 0 43 1026 10 N 7.4
Ieri h: 11:30 sereno Sereno 12 -0 43 1026 10 N 5.5
Ieri h: 11:00 sereno Sereno 11 0 46 1026 10 N 5.5
Ieri h: 10:30 sereno Sereno 11 1 50 1026 10 N 3.7
Ieri h: 10:00 sereno Sereno 10 0 49 1026 10 N 5.5
Ieri h: 09:30 sereno Sereno 10 -1 46 1027 10 N 3.7
Ieri h: 09:00 sereno Sereno 8 -0 56 1027 10 NE 9.3
Ieri h: 08:30 sereno Sereno 7 0 60 1027 10 N 5.5
Ieri h: 08:00 sereno Sereno 5 -0 70 1026 10 N/NE 7.4
Ieri h: 07:30 sereno Sereno 5 1 75 1026 10 N 5.5
Ieri h: 07:00 sereno Sereno 5 1 75 1025 10 N 5.5
Ieri h: 06:30 sereno Sereno 5 -1 65 1025 10 N 5.5
Ieri h: 06:00 sereno Sereno 5 -1 65 1025 10 N 5.5
Ieri h: 05:30 sereno Sereno 3 -1 74 1025 10 N 3.7
Ieri h: 05:00 sereno Sereno 5 -1 65 1026 10 N 1.8
Ieri h: 04:30 sereno Sereno 3 -1 74 1026 10 N 5.5
Ieri h: 04:00 sereno Sereno 4 -1 69 1026 10 N 7.4
Ieri h: 03:30 sereno Sereno 6 0 65 1026 10 N/NO 7.4
Ieri h: 03:00 sereno Sereno 5 0 70 1026 10 N/NO 11.1
Ieri h: 02:30 sereno Sereno 6 0 65 1026 10 E/NE 7.4
Ieri h: 02:00 sereno Sereno 4 0 75 1026 10 SE 7.4
Ieri h: 01:30 sereno Sereno 5 0 70 1025 10 N 5.5
Ieri h: 01:00 sereno Sereno 6 0 65 1025 10 E 11.1
Ieri h: 00:30 poco_nuvoloso Poco Nuvoloso 6 2 75 1025 10 E/NE 13
Ieri h: 00:00 poco_nuvoloso Poco Nuvoloso 6 0 65 1025 10 E/NE 9.3